Powrót do katalogu

STARLINK-4027

AktywnyŁącznośćVLEO
NORAD 52601·PAYLOAD·🇺🇸 United States

Wystrzelony May 14, 2022 z Cape Canaveral Space Force Station

Loading…

Następne Przeloty (najbliższe 24 godziny)

TLE

ŚwieżeSource: CelesTrak SupGP

Epoka: Sep 14, 2026, 21:43 UTC

1 52601C 22052D   26257.90534722 -.00025235  00000+0 -72214-3 0  2573
2 52601  53.1599 141.7415 0001260  83.5181  30.8046 15.35404773    17

Śledź STARLINK-4027 w czasie rzeczywistym z AllMySat

Download on the App Store